[[{"header":{"parameterUnit":"m.s-1","parameterCategory":1,"la1":30.2991,"la2":30.254,"lo1":-89.0895,"lo2":-89.0444,"dy":0.0017,"dx":0.0017,"nx":28,"ny":28,"refTime":"2025-08-16T21:00:00:Z","depth":0,"parameterNumber":2,"parameterNumberName":"U-component_of_WINDS"},"data":[0,0,0,0,0,0,0,0,0,0,0,0,0,0,0,0,0,0,0,0,0,0,0,0,0,0,0,0,0,0,0,0,0,0,0,0,0,0,0,0,0,0,0,0,0,0,0,0,0,0,0,0,0,0,0,0,0,0,-0.2834,-0.2834,0,-0.2905,-0.2905,-0.2906,-0.2934,-0.2934,-0.2933,-0.2933,-0.3004,-0.3006,-0.3008,0,0,0,0,0,0,0,0,0,0,0,0,0,-0.272,-0.2722,-0.2834,-0.2835,-0.2835,-0.2904,-0.2905,-0.2906,-0.2934,-0.2934,-0.2933,-0.2933,-0.3004,-0.3006,-0.3009,0,0,0,0,0,0,0,0,0,0,0,0,0,-0.2778,-0.2723,-0.2833,-0.2857,-0.286,-0.2904,-0.2905,-0.2907,-0.2934,-0.2934,-0.2933,-0.2933,-0.3003,-0.3006,-0.3009,-0.3034,0,0,-0.3018,-0.302,0,0,0,0,0,0,0,0,-0.2775,-0.2782,-0.2853,-0.2856,-0.2859,-0.291,-0.2892,-0.2949,-0.2934,-0.2906,-0.2933,-0.2933,-0.2973,-0.2979,-0.2993,-0.3037,-0.304,-0.3019,-0.3021,-0.3022,-0.3023,0,0,0,0,0,0,0,-0.2771,-0.2779,-0.2862,-0.2854,-0.2858,-0.2864,-0.2872,-0.2903,-0.294,-0.2908,-0.291,-0.2919,-0.2975,-0.2989,-0.2994,-0.3041,-0.3019,-0.3021,-0.3023,-0.3025,-0.311,-0.311,0,0,0,0,0,0,-0.2763,-0.2776,-0.2859,-0.2864,-0.2815,-0.2866,-0.2875,-0.2894,-0.294,-0.2947,-0.2919,-0.292,-0.2984,-0.2991,-0.2997,-0.3029,-0.3022,-0.3025,-0.3027,-0.3109,-0.311,-0.311,0,0,0,0,0,0,-0.276,-0.277,-0.2857,-0.282,-0.2832,-0.2869,-0.2889,-0.2896,-0.291,-0.2948,-0.2955,-0.2927,-0.2984,-0.2993,-0.3025,-0.3032,-0.3026,-0.3029,-0.3109,-0.3109,-0.311,-0.3094,0,0,0,0,0,0,-0.2757,-0.2769,-0.2779,-0.282,-0.2834,-0.2883,-0.289,-0.2897,-0.2916,-0.2918,-0.2957,-0.2964,-0.2985,-0.302,-0.3028,-0.3036,-0.3031,-0.3108,-0.3109,-0.311,-0.3094,-0.3094,-0.3094,0,0,0,0,0,-0.2753,-0.2772,-0.278,-0.279,-0.2847,-0.2884,-0.2891,-0.2916,-0.2916,-0.2927,-0.2951,-0.2962,-0.303,-0.3023,-0.3032,-0.3041,-0.3108,-0.3109,-0.311,-0.3094,-0.3094,-0.3094,0,0,0,0,0,0,-0.273,-0.2778,-0.2787,-0.282,-0.2848,-0.2888,-0.2902,-0.2915,-0.2942,-0.2943,-0.2971,-0.298,-0.301,-0.3029,-0.302,-0.3068,-0.307,-0.3072,-0.3054,-0.3055,-0.3055,-0.3049,-0.3034,0,0,0,0,0,-0.2729,-0.2755,-0.2795,-0.282,-0.2833,-0.2865,-0.2882,-0.2898,-0.2928,-0.294,-0.2966,-0.2994,-0.3022,-0.3039,-0.3066,-0.3096,-0.3105,-0.3107,-0.3107,-0.3107,-0.3109,-0.3126,-0.3128,-0.3113,-0.3113,-0.3113,0,0,-0.2727,-0.2756,-0.2771,-0.2816,-0.2839,-0.2865,-0.2875,-0.2902,-0.2921,-0.2944,-0.2976,-0.2996,-0.3029,-0.306,-0.3075,-0.3077,-0.3115,-0.3108,-0.3108,-0.311,-0.3127,-0.3129,-0.313,-0.3114,-0.3113,-0.3113,0,0,-0.2736,-0.2761,-0.2784,-0.2808,-0.2843,-0.2864,-0.287,-0.2909,-0.2923,-0.2956,-0.2973,-0.2996,-0.3043,-0.3066,-0.3083,-0.31,-0.3112,-0.3108,-0.3108,-0.3124,-0.3126,-0.3127,-0.3133,-0.3135,-0.311,-0.311,-0.311,0,-0.2729,-0.2769,-0.2795,-0.2821,-0.284,-0.2862,-0.2886,-0.2907,-0.2949,-0.2962,-0.2963,-0.3022,-0.3046,-0.3083,-0.3087,-0.31,-0.3107,-0.3104,-0.3123,-0.3125,-0.3126,-0.3133,-0.3135,-0.311,-0.311,-0.311,-0.311,0,-0.2758,-0.2786,-0.28,-0.2841,-0.2862,-0.2887,-0.2916,-0.2934,-0.2948,-0.2968,-0.3001,-0.303,-0.3064,-0.3073,-0.3087,-0.3112,-0.3112,-0.3118,-0.3121,-0.3127,-0.3133,-0.3135,-0.3109,-0.3109,-0.3109,-0.3109,0,0,-0.2755,-0.281,-0.2815,-0.2834,-0.2874,-0.2896,-0.2921,-0.2954,-0.2969,-0.2997,-0.3019,-0.3058,-0.3064,-0.3084,-0.3101,-0.3115,-0.3126,-0.3119,-0.312,-0.312,-0.3155,-0.315,-0.3153,-0.3134,-0.3135,-0.3135,-0.3152,0,-0.277,-0.2817,-0.2841,-0.2878,-0.2903,-0.2924,-0.2946,-0.2973,-0.2993,-0.3017,-0.3038,-0.3066,-0.3071,-0.3084,-0.3098,-0.3122,-0.3134,-0.3121,-0.3155,-0.3156,-0.3146,-0.3156,-0.3151,-0.3166,-0.3155,-0.3155,-0.3156,0,-0.2794,-0.2822,-0.2862,-0.2899,-0.2911,-0.293,-0.2962,-0.2985,-0.3016,-0.3029,-0.3051,-0.3068,-0.3095,-0.3095,-0.3132,-0.3123,-0.3138,-0.3151,-0.3152,-0.3157,-0.3156,-0.3161,-0.3171,-0.3173,-0.316,-0.3159,-0.3159,0,-0.2788,-0.2836,-0.2866,-0.2881,-0.2926,-0.2939,-0.2958,-0.2988,-0.3007,-0.3034,-0.3047,-0.3077,-0.3094,-0.3116,-0.314,-0.3138,-0.3175,-0.3177,-0.3187,-0.3186,-0.3194,-0.3193,-0.3207,-0.3203,-0.3203,-0.3203,-0.3203,0,-0.2802,-0.2825,-0.2864,-0.2882,-0.2909,-0.2935,-0.2961,-0.2981,-0.3008,-0.303,-0.3049,-0.307,-0.31,-0.3124,-0.3142,-0.317,-0.3178,-0.3189,-0.3194,-0.3187,-0.3186,-0.3198,-0.3198,-0.3204,-0.3204,-0.3203,-0.3203,0,-0.28,-0.2827,-0.2861,-0.29,-0.2911,-0.2928,-0.2962,-0.298,-0.3,-0.3028,-0.3036,-0.3068,-0.3097,-0.3123,-0.3162,-0.3174,-0.3203,-0.3209,-0.3193,-0.3195,-0.3203,-0.3202,-0.3225,-0.323,-0.3223,-0.3223,-0.3223,0,-0.2808,-0.2826,-0.2867,-0.2884,-0.2903,-0.2929,-0.2948,-0.2975,-0.2993,-0.3029,-0.3043,-0.3074,-0.31,-0.3145,-0.3172,-0.3201,-0.3208,-0.3214,-0.3212,-0.3205,-0.3208,-0.3207,-0.3208,-0.3214,-0.3214,-0.3213,-0.3213,0,-0.2818,-0.283,-0.2857,-0.2889,-0.2911,-0.2937,-0.2963,-0.2975,-0.3007,-0.3027,-0.3057,-0.3077,-0.3116,-0.3146,-0.3179,-0.3197,-0.3211,-0.3214,-0.3217,-0.3211,-0.3201,-0.3207,-0.3192,-0.3213,-0.3213,-0.3213,-0.3213,-0.3213,-0.2821,-0.2839,-0.287,-0.2899,-0.2922,-0.2946,-0.2965,-0.2988,-0.3014,-0.3049,-0.3063,-0.3093,-0.3123,-0.3168,-0.3186,-0.321,-0.3213,-0.3218,-0.322,-0.3221,-0.322,-0.3197,-0.3216,-0.3216,-0.3216,-0.3216,-0.3217,0,-0.2833,-0.2854,-0.2881,-0.2917,-0.294,-0.2951,-0.298,-0.2998,-0.3025,-0.3052,-0.3077,-0.3112,-0.3141,-0.3169,-0.32,-0.3214,-0.322,-0.3221,-0.322,-0.3224,-0.3216,-0.3209,-0.3215,-0.3215,-0.3215,-0.3215,-0.3215,-0.3215,-0.2841,-0.2871,-0.2887,-0.2928,-0.2949,-0.298,-0.2996,-0.3018,-0.304,-0.3077,-0.3102,-0.312,-0.3148,-0.318,-0.3207,-0.3215,-0.3225,-0.3224,-0.3233,-0.3225,-0.3225,-0.3225,-0.3219,-0.3226,-0.3226,-0.324,-0.324,-0.324]},{"header":{"parameterUnit":"m.s-1","parameterCategory":1,"la1":30.2991,"la2":30.254,"lo1":-89.0895,"lo2":-89.0444,"dy":0.0017,"dx":0.0017,"nx":28,"ny":28,"refTime":"2025-08-16T21:00:00:Z","depth":0,"parameterNumber":3,"parameterNumberName":"V-component_of_WINDS"},"data":[0,0,0,0,0,0,0,0,0,0,0,0,0,0,0,0,0,0,0,0,0,0,0,0,0,0,0,0,0,0,0,0,0,0,0,0,0,0,0,0,0,0,0,0,0,0,0,0,0,0,0,0,0,0,0,0,0,0,-2.0086,-2.0087,0,-2.0161,-2.0161,-2.0162,-2.0176,-2.0176,-2.0175,-2.0175,-2.0251,-2.0253,-2.0256,0,0,0,0,0,0,0,0,0,0,0,0,0,-1.9956,-1.9959,-2.0086,-2.0087,-2.0088,-2.016,-2.0161,-2.0162,-2.0177,-2.0176,-2.0175,-2.0174,-2.025,-2.0253,-2.0256,0,0,0,0,0,0,0,0,0,0,0,0,0,-2.002,-1.996,-2.0086,-2.0104,-2.0106,-2.016,-2.0161,-2.0163,-2.0177,-2.0176,-2.0175,-2.0174,-2.0249,-2.0253,-2.0256,-2.0298,0,0,-2.0268,-2.027,0,0,0,0,0,0,0,0,-2.0016,-2.0025,-2.01,-2.0102,-2.0105,-2.0158,-2.0144,-2.0208,-2.0177,-2.015,-2.0175,-2.0174,-2.0221,-2.0227,-2.0243,-2.0302,-2.0305,-2.0269,-2.0271,-2.0273,-2.0274,0,0,0,0,0,0,0,-2.0012,-2.0022,-2.0115,-2.0101,-2.0104,-2.0108,-2.0116,-2.0156,-2.0189,-2.0152,-2.0153,-2.0162,-2.0222,-2.0239,-2.0245,-2.0306,-2.0269,-2.0272,-2.0274,-2.0276,-2.0404,-2.0405,0,0,0,0,0,0,-2.0004,-2.0018,-2.0113,-2.0118,-2.0058,-2.0111,-2.012,-2.0142,-2.0189,-2.0195,-2.0163,-2.0162,-2.0233,-2.024,-2.0247,-2.03,-2.0273,-2.0276,-2.0278,-2.0403,-2.0405,-2.0406,0,0,0,0,0,0,-2.0002,-2.0013,-2.011,-2.0068,-2.0081,-2.0114,-2.0139,-2.0144,-2.0161,-2.0197,-2.0203,-2.0174,-2.0232,-2.0242,-2.0286,-2.0303,-2.0278,-2.0282,-2.0402,-2.0404,-2.0405,-2.0405,0,0,0,0,0,0,-1.9998,-2.0012,-2.0028,-2.0068,-2.0083,-2.0147,-2.014,-2.0146,-2.0168,-2.0168,-2.0209,-2.0215,-2.0232,-2.028,-2.029,-2.0308,-2.0285,-2.0401,-2.0403,-2.0405,-2.0404,-2.0407,-2.0409,0,0,0,0,0,-1.9993,-2.0024,-2.0028,-2.004,-2.0104,-2.0148,-2.0156,-2.0176,-2.0169,-2.0186,-2.0209,-2.0214,-2.0299,-2.0284,-2.0295,-2.0315,-2.04,-2.0402,-2.0404,-2.0403,-2.0406,-2.0409,0,0,0,0,0,0,-1.9984,-2.003,-2.0035,-2.008,-2.011,-2.015,-2.0172,-2.0179,-2.0211,-2.021,-2.0233,-2.0242,-2.0285,-2.0304,-2.0286,-2.0358,-2.0349,-2.0354,-2.0344,-2.0348,-2.035,-2.0345,-2.0288,0,0,0,0,0,-1.9988,-2.002,-2.0058,-2.0094,-2.0109,-2.0138,-2.0158,-2.017,-2.0202,-2.0215,-2.0241,-2.0272,-2.0306,-2.0328,-2.0361,-2.0407,-2.0416,-2.0426,-2.0428,-2.043,-2.0434,-2.0461,-2.0466,-2.0414,-2.0414,-2.0414,0,0,-1.9995,-2.0024,-2.0043,-2.0093,-2.0118,-2.0151,-2.0148,-2.0183,-2.0208,-2.022,-2.0263,-2.0284,-2.032,-2.0365,-2.0386,-2.0383,-2.0451,-2.0433,-2.0435,-2.0438,-2.0464,-2.0469,-2.0473,-2.0415,-2.0415,-2.0415,0,0,-2.0025,-2.005,-2.0083,-2.0108,-2.0146,-2.0165,-2.0173,-2.0212,-2.0227,-2.027,-2.028,-2.031,-2.0368,-2.0394,-2.0414,-2.0455,-2.0461,-2.0465,-2.0479,-2.0505,-2.0509,-2.0513,-2.0528,-2.0533,-2.0469,-2.0469,-2.0469,0,-2.0029,-2.0079,-2.01,-2.0134,-2.0157,-2.017,-2.0204,-2.0227,-2.0274,-2.0289,-2.0284,-2.0358,-2.0383,-2.0435,-2.0445,-2.0461,-2.0471,-2.0461,-2.0507,-2.0511,-2.0515,-2.053,-2.0535,-2.0469,-2.0469,-2.0469,-2.0469,0,-2.0083,-2.0118,-2.014,-2.0185,-2.021,-2.0244,-2.027,-2.0293,-2.0304,-2.0323,-2.0368,-2.0399,-2.0439,-2.0452,-2.0463,-2.0506,-2.0503,-2.0502,-2.0493,-2.052,-2.0534,-2.054,-2.047,-2.047,-2.047,-2.047,0,0,-2.0109,-2.0166,-2.0174,-2.0195,-2.0237,-2.0265,-2.03,-2.0339,-2.0359,-2.0391,-2.0421,-2.047,-2.0471,-2.0494,-2.0507,-2.053,-2.0562,-2.0527,-2.0528,-2.0533,-2.0612,-2.0613,-2.0619,-2.0566,-2.0567,-2.0568,-2.061,0,-2.0145,-2.0208,-2.0228,-2.0281,-2.0314,-2.0327,-2.0358,-2.0388,-2.0407,-2.0438,-2.046,-2.0495,-2.0492,-2.0506,-2.0529,-2.0553,-2.0578,-2.055,-2.0595,-2.0596,-2.0586,-2.0627,-2.0627,-2.0665,-2.0615,-2.0616,-2.0617,0,-2.0195,-2.0228,-2.0284,-2.0324,-2.0338,-2.0366,-2.0404,-2.0433,-2.0468,-2.048,-2.0507,-2.0519,-2.0557,-2.0546,-2.0599,-2.058,-2.06,-2.0614,-2.0616,-2.0621,-2.0608,-2.0633,-2.0677,-2.0683,-2.0626,-2.0625,-2.0625,0,-2.0209,-2.0268,-2.0309,-2.0327,-2.0374,-2.0393,-2.0413,-2.0447,-2.047,-2.0503,-2.0519,-2.0556,-2.0577,-2.0606,-2.0628,-2.0618,-2.0679,-2.067,-2.0691,-2.0691,-2.0704,-2.0703,-2.0752,-2.0716,-2.0716,-2.0716,-2.0715,0,-2.0247,-2.0281,-2.0317,-2.0342,-2.0381,-2.0404,-2.0442,-2.0463,-2.0493,-2.0523,-2.0537,-2.0565,-2.0593,-2.0625,-2.0642,-2.0684,-2.0693,-2.0705,-2.0709,-2.0704,-2.0703,-2.0717,-2.0715,-2.0717,-2.0717,-2.0716,-2.0716,0,-2.027,-2.0295,-2.0341,-2.0382,-2.0393,-2.042,-2.0455,-2.0481,-2.0501,-2.054,-2.055,-2.0582,-2.0621,-2.0646,-2.0695,-2.0707,-2.0753,-2.0756,-2.0741,-2.0743,-2.0763,-2.0761,-2.0824,-2.0834,-2.0791,-2.0791,-2.0791,0,-2.0293,-2.0319,-2.0363,-2.0385,-2.0405,-2.0439,-2.0463,-2.0487,-2.0511,-2.0553,-2.0573,-2.0613,-2.0646,-2.0707,-2.0735,-2.0773,-2.0777,-2.0797,-2.0783,-2.0777,-2.0779,-2.0777,-2.078,-2.0799,-2.0799,-2.08,-2.08,0,-2.0331,-2.0342,-2.0375,-2.0413,-2.0441,-2.0472,-2.0503,-2.052,-2.0549,-2.0575,-2.0615,-2.0641,-2.0691,-2.0731,-2.0771,-2.0793,-2.0802,-2.0804,-2.0811,-2.0806,-2.0797,-2.0803,-2.0747,-2.0802,-2.0802,-2.0802,-2.0802,-2.0802,-2.0355,-2.0379,-2.0414,-2.0451,-2.0477,-2.0506,-2.0532,-2.0556,-2.059,-2.0633,-2.0645,-2.0687,-2.0722,-2.0777,-2.08,-2.0833,-2.0831,-2.0841,-2.0843,-2.0846,-2.0846,-2.0791,-2.084,-2.084,-2.084,-2.084,-2.084,0,-2.0394,-2.0417,-2.0451,-2.0494,-2.0524,-2.0529,-2.0564,-2.0588,-2.0625,-2.0657,-2.0689,-2.0735,-2.0774,-2.0805,-2.0845,-2.0866,-2.0871,-2.0875,-2.0874,-2.0879,-2.0846,-2.0836,-2.0871,-2.0871,-2.0871,-2.0871,-2.0871,-2.0871,-2.0418,-2.046,-2.0476,-2.0531,-2.0555,-2.0595,-2.0615,-2.0642,-2.0668,-2.0719,-2.0751,-2.0771,-2.0803,-2.0845,-2.0881,-2.089,-2.0904,-2.0908,-2.0917,-2.0885,-2.0882,-2.0878,-2.0869,-2.0911,-2.0911,-2.0948,-2.0949,-2.0949]}]]